Location: *
(46.1200°N, 11.2700°E)
Time: 16:38:21
(UTC+00:00)

Cosmos 1992 Rocket - Pass Details

Date: 02 March 2021
Orbit: 759 x 765 km, 74.0° (Epoch: 19 April)

Event Time Altitude Azimuth Distance (km) Brightness Sun altitude
Rises 18:25:42 0° 201° (SSW) 3,217 7.4 -15.1°
Reaches altitude 10° 18:28:04 10° 202° (SSW) 2,295 6.7 -15.5°
Maximum altitude 18:33:17 86° 290° (WNW) 772 4.0 -16.4°
Drops below altitude 10° 18:38:33 10° 21° (NNE) 2,308 6.3 -17.3°
Sets 18:40:55 0° 22° (NNE) 3,237 7.1 -17.8°
